SCOUT A R/B, 2967

Orbit data source: Space-Track

SCOUT A R/B, 2967 is space debris in LEO originally from a launch on Mon, 25 Sep 1967 UTC launched from the Air Force Western Test Range (AFWTR). Debris objects in space refer to the collection of defunct objects orbiting the Earth. Examples of debris include non-operational satellites, rocket bodies, and fragments generated from explosions, collisions, or faulty payload assembly.

Loading next visibility...
SCOUT A R/B details
Identifier
2967, 1967-092B
Orbit
LEO
Last TLE update8 hours ago
Origin
Flag of USNASA LaRC (US)
ManufacturerABL
MissionSpacecraft
Bus & MotorALTAIR, Unknown motor
Mass33 kg wet, 33 kg dry
Launch date (UTC)
1967-09-25 (57 years ago)
Launch vehicleUnknown
Launch site
Air Force Western Test Range (AFWTR)
Object type
Payload
Rocket body
Debris
Shape & HBRCyl, 1.5 m
Radar Cross Section0.687 m², Medium (>0.1 m² and < 1m²)

Expand to show TLE details & history

TLE from 8 hours ago
0 SCOUT A R/B
1 02967U 67092B   25015.59481277  .00000133  00000-0  18276-3 0  9998
2 02967  89.2349  48.5695 0047352 159.7578 314.1951 13.52294264824973
Epoch: 2025-01-15T14:16Z
Definitive object data (Epoch: 2025-01-15T14:16:31.823Z)
Latitude66.5051°
Longitude-102.59934°
Altitude1,050.931 km
Speed7.345 km/s
True Right ascension15h 07m 16s
True Declination66° 23' 03"
Sunlit
Object was in daylight at TLE epoch
Visualization TLE readout
Latitude-15.58751°
Longitude78.91305°
Altitude1,105.169 km
Speed7.282 km/s
Apparent Right ascension06h 00m 06s
Apparent Declination-43° 33' 57"
Sunlit
Object is in daylight
Visualization observer readout
Local Sidereal Time23:13:01
Azimuth121.445° SE
Elevation-33.751°
Doppler factor1
Orbital elements
Apogee altitude1,096.103 km
Perigee altitude1,025.652 km
Semi-major axis7,439.014 km
Eccentricity0.0047352
Inclination89.2349°
RAAN48.5695°
Arg. of periapsis159.7578°
True anomaly313.80445°
Mean anomaly314.1951°
Eccentric anomaly313.99994°
Mean motion3.38275 °/min
BSTAR0.00018276
Orbital period106.42 mins
Loading maneuver chart data...
Loading historical data...
Loading historical data...
Loading historical data...
Loading historical data...
Loading historical data...
Loading historical data...
Loading historical data...

SCOUT A R/B Visibility forecast

Observer location: undefined°, undefined

Span
Click to sort rows by Start time (UTC) header in descending order
Start Az.
Max El. time (UTC)
Max El. Az.
Max El.
End time (UTC)
End Az.
12 mins2025-01-16 02:15:00.649Z167.371° S2025-01-16 02:21:00.649Z60.257° ENE43.387°2025-01-16 02:27:00.649Z3.26° NNE
6 mins2025-01-16 04:05:00.649Z255.874° W2025-01-16 04:08:00.649Z286.974° WNW16.78°2025-01-16 04:11:00.649Z316.49° NNW
9 mins2025-01-16 13:25:00.649Z28.527° NE2025-01-16 13:29:00.649Z77.573° E28.045°2025-01-16 13:34:00.649Z139.797° SSE
10 mins2025-01-16 15:11:00.649Z339.819° N2025-01-16 15:16:00.649Z273.677° WNW31.247°2025-01-16 15:21:00.649Z217.272° SW
|